This demonstration page uses our WeatherBlox Daily Observations layout. Learn more.

Left ArrowRight Arrow

Hourly Observations for February 19, 2017

Temp ( °F °C ) Dew Point ( °F °C ) Humidity (%) Winds ( mph kmh ) Pressure ( in mb ) Visibility ( mi km ) Precip ( " mm )
12:29 am 00:29 Partly Cloudy 49 9.4 46 7.8 90 90 W 6 9 29.97 1015 9 14 N/A
12:53 am 00:53 Clear 49 9.4 46 7.8 90 90 W 6 9 29.93 1014 9 14 N/A
1:53 am 01:53 Clear 48 8.9 46 7.8 93 93 W 5 7 29.93 1013 10 16 N/A
2:50 am 02:50 Clear with Mist and Fog 39 4 39 4 100 100 N N/A 29.97 1015 2 2 N/A
2:53 am 02:53 Clear with Mist and Fog 40 4.4 40 4.4 100 100 N N/A 29.95 1014 1 2 N/A
3:02 am 03:02 Clear with Mist and Fog 40 4.4 39 3.9 97 97 N N/A 29.97 1015 3 5 N/A
3:07 am 03:07 Clear with Mist and Fog 40 4.4 39 3.9 97 97 N N/A 29.97 1015 2 3 N/A
3:14 am 03:14 Clear with Mist and Fog 39 3.9 39 3.9 100 100 N N/A 29.97 1015 1 2 N/A
3:22 am 03:22 Clear with Fog 38 3.3 38 3.3 100 100 N N/A 29.97 1015 1 1 N/A
3:35 am 03:35 Mostly Cloudy with Fog 36 2.2 36 2.2 100 100 N N/A 29.97 1015 0 0 N/A
3:53 am 03:53 Mostly Cloudy with Fog 37 2.8 37 2.8 100 100 E 3 6 29.95 1014 0 0 N/A
4:00 am 04:00 Mostly Clear with Mist and Fog 36 2.2 36 2.2 100 100 N N/A 29.97 1015 1 2 N/A
4:12 am 04:12 Clear with Fog 35 1.7 35 1.7 100 100 N N/A 30.00 1016 1 1 N/A
4:40 am 04:40 Mostly Cloudy with Fog 34 1.1 34 1.1 100 100 N N/A 30.00 1016 0 0 N/A
4:51 am 04:51 Clear with Fog 36 2 36 2 100 100 N N/A 30.00 1016 1 1 N/A
4:53 am 04:53 Clear with Fog 35 1.7 35 1.7 100 100 N N/A 29.98 1015 1 1 N/A
5:02 am 05:02 Clear with Mist and Fog 36 2.2 35 1.7 97 97 N N/A 30.00 1016 2 3 N/A
5:09 am 05:09 Clear with Mist and Fog 36 2.2 35 1.7 97 97 N N/A 30.03 1017 1 1 N/A
5:11 am 05:11 Mostly Cloudy with Fog 35 1.7 35 1.7 100 100 N N/A 30.03 1017 1 1 N/A
5:27 am 05:27 Mostly Cloudy with Mist and Fog 35 1.7 35 1.7 100 100 N N/A 30.03 1017 2 3 N/A
5:34 am 05:34 Mostly Cloudy with Mist and Fog 36 2.2 36 2.2 100 100 N N/A 30.03 1017 6 10 N/A
5:45 am 05:45 Cloudy with Mist and Fog 38 3.3 38 3.3 100 100 N N/A 30.03 1017 2 3 N/A
5:53 am 05:53 Cloudy with Mist and Fog 40 4.4 40 4.4 100 100 N N/A 30.01 1016 1 2 N/A
5:59 am 05:59 Cloudy with Mist and Fog 41 5 40 4.4 96 96 N N/A 30.03 1017 2 3 N/A
6:02 am 06:02 Cloudy with Mist and Fog 41 5 41 5 100 100 N N/A 30.03 1017 4 6 N/A
6:53 am 06:53 Cloudy with Mist and Fog 47 8.3 47 8.3 100 100 WSW 7 11 30.02 1017 6 10 N/A
7:53 am 07:53 Cloudy with Mist and Fog 48 8.9 47 8.3 96 96 W 5 7 30.04 1017 5 8 N/A
8:53 am 08:53 Cloudy with Mist and Fog 49 9.4 47 8.3 93 93 WNW 5 7 30.08 1019 5 8 N/A
9:53 am 09:53 Cloudy with Mist and Fog 49 9.4 47 8.3 93 93 WNW 5 7 30.10 1019 5 8 N/A
10:53 am 10:53 Cloudy with Mist and Fog 50 10 47 8.3 89 89 WSW 5 7 30.12 1020 6 10 N/A
11:53 am 11:53 Cloudy 50 10 47 8.3 89 89 WNW 5 7 30.14 1021 7 11 N/A
12:18 pm 12:18 Cloudy 51 10.6 46 7.8 83 83 W 6 9 30.12 1020 7 11 N/A
12:53 pm 12:53 Cloudy 52 11.1 47 8.3 83 83 VRB 5 7 30.11 1020 8 13 N/A
1:53 pm 13:53 Cloudy 55 12.8 47 8.3 74 74 VRB 5 7 30.11 1020 9 14 N/A
2:06 pm 14:06 Cloudy 54 12.2 47 8.3 77 77 NW 6 9 30.09 1019 9 14 N/A
2:30 pm 14:30 Partly Cloudy 58 14.4 47 8.3 67 67 VRB 5 7 30.06 1018 10 16 N/A
2:53 pm 14:53 Mostly Sunny 58 14.4 47 8.3 67 67 WSW 7 11 30.10 1019 10 16 N/A
3:53 pm 15:53 Sunny 60 15.6 47 8.3 62 62 W 5 7 30.12 1020 10 16 N/A
4:53 pm 16:53 Sunny 61 16.1 47 8.3 60 60 W 5 7 30.12 1020 10 16 N/A
5:53 pm 17:53 Sunny 59 15 46 7.8 62 62 W 3 6 30.13 1020 10 16 N/A
6:53 pm 18:53 Clear 47 8.3 42 5.6 83 83 N N/A 30.14 1021 10 16 N/A
7:53 pm 19:53 Clear 43 6.1 40 4.4 89 89 N N/A 30.16 1021 9 14 N/A
8:53 pm 20:53 Clear with Mist and Fog 40 4.4 38 3.3 93 93 E 3 6 30.16 1021 6 10 N/A
9:53 pm 21:53 Clear with Mist and Fog 39 3.9 37 2.8 93 93 N N/A 30.17 1022 5 8 N/A
10:46 pm 22:46 Clear with Mist and Fog 36 2.2 35 1.7 97 97 N N/A 30.21 1023 3 4 N/A
10:53 pm 22:53 Clear with Mist and Fog 35 1.7 34 1.1 96 96 N N/A 30.19 1022 3 5 N/A
11:23 pm 23:23 Mostly Clear with Mist and Fog 36 2.2 35 1.7 97 97 N N/A 30.21 1023 3 5 N/A
11:28 pm 23:28 Mostly Clear with Mist and Fog 36 2.2 35 1.7 97 97 N N/A 30.21 1023 1 2 N/A
11:35 pm 23:35 Mostly Cloudy with Mist and Fog 35 1.7 34 1.1 96 96 N N/A 30.21 1023 1 2 N/A
11:46 pm 23:46 Mostly Cloudy with Fog 35 1.7 35 1.7 100 100 N N/A 30.21 1023 0 0 N/A
11:53 pm 23:53 Mostly Cloudy with Fog 34 1.1 34 1.1 100 100 N N/A 30.19 1023 0 0 N/A

Powered by AerisWeather